Home   Weather   Haltern am See   Past weeks

Flag for Germany Past Weather in Haltern am See, North Rhine-Westphalia, Germany — Yesterday and Last 2 Weeks

Now
52 °F

Sunny.


Feels Like: 49 °F
Forecast: 65 / 78 °F
Wind: 7 mph from Southwest

Location: Dortmund / Wickede

Current Time: Jul 21, 2017 at 6:56:11 am

Latest Report: Jul 21, 2017 at 6:20 am


Visibility: 10 mi

Pressure: 29.98 "Hg

Humidity: 82%

Dew Point: 46 °F

Location of Haltern am SeeLocation

Past Weather in Haltern am See — Graph

°F

Haltern am See Temperature Yesterday

Maximum temperature yesterday: 77 °F (at 3:20 pm)
Minimum temperature yesterday: 64 °F (at 5:20 am)
Average temperature yesterday: 70 °F

High & Low Weather Summary for the Past Weeks

 TemperatureHumidityPressure
High90 °F (Jul 19, 2:50 pm)94% (Jul 6, 5:20 am)30.21 "Hg (Jul 6, 5:20 am)
Low45 °F (Jul 13, 5:20 am)29% (Jul 19, 2:50 pm)29.68 "Hg (Jul 12, 1:20 pm)
Average67 °F63%29.98 "Hg
* Reported Jul 6 5:20 am — Jul 21 5:20 am, Haltern am See. Weather by CustomWeather, © 2017

Note: Actual official high and low records may vary slightly from our data, if they occured in-between our weather recording intervals... More about our weather records

Advertising

Haltern am See Weather History for the Previous 24 Hours

Scroll right to see more
 ConditionsComfort  
Time TempWeatherWind HumidityBarometerVisibility
5:20 am
Fri, Jul 21
54 °FClear.8 mph82%29.95 "Hg10 mi
9:50 pm
Thu, Jul 20
66 °FClear.9 mph73%29.86 "Hg10 mi
9:20 pm66 °FScattered showers. Broken clouds.16 mph73%29.86 "HgN/A
8:50 pm72 °FSunny.10 mph53%29.83 "Hg10 mi
8:20 pm72 °FSunny.10 mph53%29.83 "Hg10 mi
7:50 pm73 °FSunny.14 mph47%29.80 "Hg10 mi
7:20 pm73 °FSunny.15 mph47%29.80 "Hg10 mi
6:50 pm73 °FSunny.12 mph47%29.80 "Hg10 mi
6:20 pm75 °FPassing clouds.12 mph44%29.80 "HgN/A
5:50 pm75 °FPassing clouds.13 mph41%29.80 "HgN/A
5:20 pm75 °FSunny.15 mph41%29.80 "Hg10 mi
4:50 pm77 °FPassing clouds.18 mph36%29.80 "HgN/A
4:20 pm77 °FSunny.16 mph42%29.77 "Hg10 mi
3:20 pm77 °FPassing clouds.18 mph47%29.77 "HgN/A
2:50 pm75 °FScattered clouds.12 mph61%29.77 "HgN/A
1:50 pm72 °FScattered clouds.12 mph73%29.80 "HgN/A
1:20 pm72 °FPassing clouds.10 mph73%29.80 "HgN/A
12:50 pm72 °FScattered clouds.12 mph69%29.80 "HgN/A
12:20 pm70 °FPassing clouds.13 mph73%29.80 "HgN/A
11:50 am70 °FScattered clouds.13 mph73%29.80 "HgN/A
11:20 am70 °FPassing clouds.12 mph83%29.80 "HgN/A
10:50 am68 °FPassing clouds.12 mph83%29.80 "HgN/A
10:20 am66 °FSunny.10 mph83%29.80 "Hg10 mi
9:50 am66 °FSunny.12 mph83%29.77 "Hg10 mi
9:20 am66 °FSunny.10 mph83%29.80 "Hg10 mi
8:50 am66 °FPassing clouds.8 mph83%29.80 "HgN/A
8:20 am64 °FLight rain. Scattered clouds.5 mph88%29.80 "HgN/A
7:50 am64 °FLight rain. Partly sunny.6 mph88%29.80 "HgN/A
7:20 am64 °FLight rain. Broken clouds.8 mph88%29.80 "Hg5 mi
6:50 am64 °FSprinkles. Partly sunny.9 mph88%29.80 "Hg5 mi
6:20 am64 °FThundershowers. Partly sunny.1 mph88%29.74 "HgN/A
Weather by CustomWeather, © 2017

See weather overviewHow to use our weather pages